GSAT0204 (PRN E22)

Last updated on Sun Jul 21 2024 00:03:08 GMT+0000 (Coordinated Universal Time)

1 40545U 15017B 24202.01887854 -.00000071 00000+0 00000+0 0 9990 2 40545 56.9312 0.5913 0002337 210.1403 149.8525 1.70475574 20365

Satellite not in orbit

GSAT0204 (PRN E22)